Location: C�mpuri de-Sus
(45.9500°N, 22.5500°E)
Time: 00:51:23
(UTC+00:00)

Cosmos 839 Rocket - Pass Details

Date: 06 June 2022
Orbit: 968 x 2085 km, 65.9° (Epoch: 06 July)

Event Time Altitude Azimuth Distance (km) Brightness Sun altitude
Rises 20:13:51 0° 326° (NNW) 3,687 9.0 -14.8°
Reaches altitude 10° 20:16:21 10° 331° (NNW) 2,775 7.8 -15.1°
Maximum altitude 20:22:37 56° 50° (NE) 1,287 4.7 -15.6°
Enters shadow 20:28:13 18° 124° (ESE) 2,627 5.7 -16.1°
